EZY234B EGKK-EGAC

Flight info

Callsign EZY234B
Flight time 0h 52m
Altitude 36000
Route LAM L10 BPK UN601 LESTA UP6 RODOL UM65 TENSO L603 BELOX DCT REMSI DCT NINEB M148 MAGEE
Aircraft A319/M-SDE2E3FGIJ1RWXYZ/LB1

Departure

Time 2026-05-06 21:50
Airport London Gatwick Airport (EGKK)

Arrival

Time 2026-05-06 22:42
Airport George Best Belfast City Airport (EGAC)
Time Latitude Longitude Altitude Speed Heading
2026-05-06 21:21 51.15591 -0.17621 213 ft 0 kts 347°
2026-05-06 21:37 51.15576 -0.17615 206 ft 4 kts 347°
2026-05-06 21:37 51.15551 -0.17607 212 ft 2 kts 347°
2026-05-06 21:37 51.15532 -0.17596 211 ft 4 kts 298°
2026-05-06 21:37 51.15531 -0.17562 209 ft 4 kts 257°
2026-05-06 21:38 51.15533 -0.17546 210 ft 0 kts 257°
2026-05-06 21:40 51.15532 -0.17552 215 ft 3 kts 257°
2026-05-06 21:40 51.15518 -0.17655 213 ft 16 kts 257°
2026-05-06 21:40 51.15486 -0.17890 212 ft 24 kts 258°
2026-05-06 21:40 51.15458 -0.18093 213 ft 14 kts 257°
2026-05-06 21:41 51.15383 -0.18143 207 ft 14 kts 166°
2026-05-06 21:41 51.15298 -0.18112 209 ft 6 kts 168°
2026-05-06 21:41 51.15278 -0.18105 207 ft 7 kts 168°
2026-05-06 21:41 51.15202 -0.18152 204 ft 15 kts 252°
2026-05-06 21:42 51.15184 -0.18315 206 ft 15 kts 264°
2026-05-06 21:42 51.15163 -0.18483 204 ft 16 kts 256°
2026-05-06 21:42 51.15140 -0.18655 207 ft 16 kts 258°
2026-05-06 21:42 51.15116 -0.18834 203 ft 17 kts 258°
2026-05-06 21:43 51.15090 -0.19022 204 ft 20 kts 257°
2026-05-06 21:43 51.15052 -0.19299 207 ft 29 kts 258°
2026-05-06 21:43 51.15009 -0.19613 208 ft 29 kts 257°
2026-05-06 21:43 51.14966 -0.19923 206 ft 28 kts 257°
2026-05-06 21:44 51.14923 -0.20229 208 ft 28 kts 257°
2026-05-06 21:44 51.14881 -0.20537 208 ft 29 kts 258°
2026-05-06 21:44 51.14839 -0.20847 211 ft 29 kts 257°
2026-05-06 21:44 51.14799 -0.21130 204 ft 18 kts 252°
2026-05-06 21:45 51.14765 -0.21324 204 ft 13 kts 258°
2026-05-06 21:45 51.14719 -0.21401 207 ft 11 kts 186°
2026-05-06 21:45 51.14653 -0.21346 210 ft 12 kts 140°
2026-05-06 21:45 51.14621 -0.21327 204 ft 0 kts 173°
2026-05-06 21:48 51.14615 -0.21326 204 ft 3 kts 173°
2026-05-06 21:48 51.14544 -0.21275 208 ft 17 kts 136°
2026-05-06 21:48 51.14527 -0.21114 213 ft 14 kts 77°
2026-05-06 21:48 51.14530 -0.21090 207 ft 0 kts 77°
2026-05-06 21:49 51.14538 -0.21038 204 ft 25 kts 77°
2026-05-06 21:49 51.14643 -0.20275 212 ft 114 kts 77°
2026-05-06 21:50 51.14860 -0.18667 407 ft 164 kts 78°
2026-05-06 21:50 51.15097 -0.16909 1357 ft 163 kts 75°
2026-05-06 21:50 51.15354 -0.15128 2269 ft 166 kts 75°
2026-05-06 21:50 51.15622 -0.13286 3030 ft 180 kts 76°
2026-05-06 21:51 51.15905 -0.11224 3505 ft 201 kts 76°
2026-05-06 21:51 51.16220 -0.08908 3869 ft 226 kts 76°
2026-05-06 21:51 51.16760 -0.06427 4346 ft 250 kts 58°
2026-05-06 21:51 51.17824 -0.04141 5070 ft 262 kts 51°
2026-05-06 21:52 51.18956 -0.01820 6033 ft 268 kts 51°
2026-05-06 21:52 51.20104 0.00546 6952 ft 272 kts 52°
2026-05-06 21:52 51.21285 0.02934 7846 ft 277 kts 47°
2026-05-06 21:52 51.22840 0.04748 8711 ft 280 kts 22°
2026-05-06 21:53 51.24743 0.05370 9608 ft 283 kts 357°
2026-05-06 21:53 51.26700 0.04892 10312 ft 293 kts 347°
2026-05-06 21:53 51.28782 0.04227 10613 ft 317 kts 347°
2026-05-06 21:53 51.31016 0.03504 10855 ft 340 kts 347°
2026-05-06 21:54 51.33417 0.02724 11074 ft 363 kts 348°
2026-05-06 21:54 51.35961 0.01900 11350 ft 380 kts 348°
2026-05-06 21:54 51.38573 0.01059 11963 ft 386 kts 348°
2026-05-06 21:54 51.41221 0.00211 12650 ft 390 kts 348°
2026-05-06 21:55 51.43888 -0.00640 13313 ft 394 kts 348°
2026-05-06 21:55 51.46593 -0.01501 13984 ft 397 kts 348°
2026-05-06 21:55 51.49315 -0.02370 14587 ft 401 kts 348°
2026-05-06 21:55 51.52064 -0.03254 15185 ft 405 kts 348°
2026-05-06 21:56 51.54833 -0.04150 15760 ft 408 kts 348°
2026-05-06 21:56 51.57631 -0.05058 16313 ft 412 kts 347°
2026-05-06 21:56 51.60450 -0.05971 16867 ft 415 kts 347°
2026-05-06 21:56 51.63287 -0.06887 17407 ft 418 kts 347°
2026-05-06 21:57 51.66156 -0.07814 17923 ft 422 kts 347°
2026-05-06 21:57 51.69046 -0.08749 18419 ft 425 kts 347°
2026-05-06 21:57 51.71952 -0.09692 18848 ft 428 kts 347°
2026-05-06 21:57 51.74819 -0.11028 19283 ft 430 kts 338°
2026-05-06 21:58 51.77529 -0.13080 19712 ft 431 kts 329°
2026-05-06 21:58 51.80079 -0.15513 20130 ft 433 kts 328°
2026-05-06 21:58 51.82686 -0.18000 20531 ft 436 kts 328°
2026-05-06 21:58 51.85338 -0.20526 20950 ft 438 kts 328°
2026-05-06 21:59 51.87970 -0.23035 21347 ft 440 kts 328°
2026-05-06 21:59 51.90618 -0.25563 21734 ft 443 kts 328°
2026-05-06 21:59 51.93233 -0.28064 22125 ft 445 kts 328°
2026-05-06 21:59 51.95909 -0.30629 22441 ft 449 kts 328°
2026-05-06 22:00 51.98611 -0.33227 22587 ft 455 kts 328°
2026-05-06 22:00 52.01346 -0.35861 22852 ft 458 kts 328°
2026-05-06 22:00 52.04099 -0.38516 23138 ft 461 kts 328°
2026-05-06 22:00 52.06857 -0.41180 23450 ft 463 kts 328°
2026-05-06 22:01 52.09631 -0.43859 23728 ft 465 kts 328°
2026-05-06 22:01 52.12413 -0.46548 23979 ft 466 kts 328°
2026-05-06 22:01 52.15210 -0.49252 24236 ft 468 kts 328°
2026-05-06 22:01 52.18011 -0.51962 24488 ft 469 kts 328°
2026-05-06 22:02 52.20822 -0.54689 24742 ft 471 kts 328°
2026-05-06 22:02 52.23634 -0.57421 24978 ft 472 kts 328°
2026-05-06 22:02 52.26464 -0.60175 25253 ft 473 kts 328°
2026-05-06 22:02 52.29286 -0.62925 25643 ft 471 kts 328°
2026-05-06 22:03 52.32092 -0.65665 26059 ft 469 kts 328°
2026-05-06 22:03 52.34890 -0.68403 26469 ft 468 kts 328°
2026-05-06 22:03 52.37676 -0.71136 26866 ft 467 kts 328°
2026-05-06 22:03 52.40459 -0.73868 27271 ft 466 kts 328°
2026-05-06 22:04 52.43233 -0.76596 27684 ft 464 kts 328°
2026-05-06 22:04 52.45996 -0.79315 28105 ft 463 kts 328°
2026-05-06 22:04 52.48752 -0.82032 28537 ft 462 kts 328°
2026-05-06 22:04 52.51503 -0.84748 28975 ft 461 kts 328°
2026-05-06 22:05 52.54247 -0.87462 29421 ft 459 kts 328°
2026-05-06 22:05 52.56981 -0.90169 29870 ft 458 kts 329°
2026-05-06 22:05 52.59705 -0.92869 30283 ft 457 kts 329°
2026-05-06 22:05 52.62428 -0.95572 30641 ft 456 kts 328°
2026-05-06 22:06 52.65141 -0.98271 31018 ft 455 kts 328°
2026-05-06 22:06 52.67849 -1.00973 31386 ft 455 kts 329°
2026-05-06 22:06 52.70553 -1.03672 31758 ft 454 kts 329°
2026-05-06 22:06 52.73228 -1.06412 32138 ft 453 kts 325°
2026-05-06 22:07 52.75650 -1.09616 32560 ft 452 kts 317°
2026-05-06 22:07 52.77930 -1.13182 32964 ft 451 kts 317°
2026-05-06 22:07 52.80201 -1.16750 33366 ft 450 kts 317°
2026-05-06 22:07 52.82464 -1.20313 33763 ft 449 kts 317°
2026-05-06 22:08 52.84718 -1.23869 34141 ft 448 kts 317°
2026-05-06 22:08 52.86975 -1.27426 34447 ft 447 kts 317°
2026-05-06 22:08 52.89228 -1.30978 34739 ft 448 kts 317°
2026-05-06 22:08 52.91485 -1.34538 35012 ft 448 kts 317°
2026-05-06 22:09 52.93742 -1.38105 35290 ft 448 kts 317°
2026-05-06 22:09 52.96000 -1.41678 35557 ft 449 kts 316°
2026-05-06 22:09 52.98255 -1.45253 35813 ft 449 kts 316°
2026-05-06 22:09 53.00513 -1.48839 36024 ft 450 kts 316°
2026-05-06 22:10 53.05016 -1.56009 36074 ft 446 kts 317°
2026-05-06 22:10 53.09473 -1.63131 36070 ft 443 kts 317°
2026-05-06 22:11 53.13905 -1.70245 36068 ft 443 kts 317°
2026-05-06 22:11 53.18344 -1.77376 36076 ft 443 kts 317°
2026-05-06 22:12 53.22767 -1.84531 36064 ft 443 kts 315°
2026-05-06 22:12 53.26499 -1.92722 36070 ft 444 kts 306°
2026-05-06 22:13 53.29990 -2.01212 36067 ft 443 kts 306°
2026-05-06 22:13 53.33473 -2.09720 36053 ft 443 kts 306°
2026-05-06 22:14 53.36947 -2.18235 36048 ft 443 kts 306°
2026-05-06 22:14 53.40416 -2.26763 36046 ft 443 kts 306°
2026-05-06 22:15 53.43878 -2.35304 36042 ft 443 kts 306°
2026-05-06 22:15 53.47324 -2.43883 36042 ft 443 kts 306°
2026-05-06 22:16 53.50770 -2.52475 36036 ft 443 kts 306°
2026-05-06 22:16 53.54215 -2.61066 36029 ft 443 kts 306°
2026-05-06 22:17 53.57658 -2.69676 36024 ft 444 kts 306°
2026-05-06 22:17 53.61072 -2.78245 36027 ft 444 kts 306°
2026-05-06 22:18 53.64507 -2.86890 36029 ft 444 kts 306°
2026-05-06 22:18 53.67936 -2.95550 36023 ft 444 kts 305°
2026-05-06 22:19 53.71358 -3.04228 36036 ft 444 kts 305°
2026-05-06 22:19 53.74763 -3.12907 36026 ft 443 kts 305°
2026-05-06 22:20 53.78157 -3.21599 36034 ft 443 kts 305°
2026-05-06 22:20 53.81548 -3.30287 36038 ft 442 kts 305°
2026-05-06 22:21 53.84932 -3.38982 36029 ft 442 kts 305°
2026-05-06 22:21 53.88261 -3.47729 36026 ft 443 kts 301°
2026-05-06 22:22 53.90622 -3.57394 36021 ft 445 kts 292°
2026-05-06 22:22 53.92743 -3.67248 36019 ft 445 kts 292°
2026-05-06 22:23 53.94863 -3.77114 36026 ft 445 kts 292°
2026-05-06 22:23 53.97402 -3.86635 36016 ft 442 kts 301°
2026-05-06 22:24 53.98936 -3.91167 35208 ft 443 kts 302°
2026-05-06 22:24 54.00468 -3.95698 34250 ft 440 kts 302°
2026-05-06 22:24 54.01973 -4.00164 33395 ft 432 kts 302°
2026-05-06 22:24 54.03453 -4.04563 32462 ft 425 kts 302°
2026-05-06 22:25 54.04913 -4.08907 31486 ft 421 kts 302°
2026-05-06 22:25 54.06395 -4.13185 30567 ft 421 kts 305°
2026-05-06 22:25 54.08087 -4.17292 29422 ft 428 kts 307°
2026-05-06 22:25 54.09817 -4.21445 28249 ft 432 kts 306°
2026-05-06 22:26 54.11561 -4.25648 27124 ft 435 kts 306°
2026-05-06 22:26 54.13312 -4.29883 25938 ft 439 kts 306°
2026-05-06 22:26 54.15075 -4.34163 24767 ft 442 kts 305°
2026-05-06 22:26 54.16844 -4.38462 23661 ft 443 kts 305°
2026-05-06 22:27 54.18617 -4.42768 22376 ft 444 kts 304°
2026-05-06 22:27 54.20387 -4.47074 21429 ft 440 kts 304°
2026-05-06 22:27 54.22106 -4.51269 20571 ft 434 kts 304°
2026-05-06 22:27 54.23828 -4.55475 19716 ft 430 kts 304°
2026-05-06 22:28 54.25532 -4.59640 18874 ft 426 kts 304°
2026-05-06 22:28 54.27225 -4.63784 18017 ft 423 kts 303°
2026-05-06 22:28 54.28902 -4.67898 17179 ft 418 kts 303°
2026-05-06 22:28 54.30554 -4.71950 16399 ft 413 kts 303°
2026-05-06 22:29 54.32188 -4.75965 15673 ft 408 kts 303°
2026-05-06 22:29 54.33799 -4.79939 14954 ft 404 kts 303°
2026-05-06 22:29 54.35393 -4.83891 14252 ft 401 kts 303°
2026-05-06 22:29 54.36970 -4.87813 13542 ft 398 kts 302°
2026-05-06 22:30 54.38535 -4.91710 12866 ft 394 kts 302°
2026-05-06 22:30 54.40079 -4.95560 12223 ft 389 kts 302°
2026-05-06 22:30 54.41602 -4.99360 11552 ft 384 kts 302°
2026-05-06 22:30 54.43098 -5.03083 11249 ft 370 kts 303°
2026-05-06 22:31 54.44522 -5.06620 11118 ft 351 kts 303°
2026-05-06 22:31 54.45880 -5.09976 10988 ft 334 kts 303°
2026-05-06 22:31 54.47176 -5.13174 10866 ft 319 kts 303°
2026-05-06 22:31 54.48420 -5.16232 10742 ft 305 kts 303°
2026-05-06 22:32 54.49614 -5.19167 10616 ft 293 kts 302°
2026-05-06 22:32 54.50857 -5.21884 10417 ft 287 kts 311°
2026-05-06 22:32 54.52347 -5.24137 10180 ft 285 kts 319°
2026-05-06 22:32 54.53901 -5.26233 9937 ft 283 kts 319°
2026-05-06 22:33 54.55446 -5.28329 9813 ft 283 kts 319°
2026-05-06 22:33 54.56988 -5.30427 9677 ft 282 kts 319°
2026-05-06 22:33 54.58527 -5.32528 9540 ft 282 kts 319°
2026-05-06 22:33 54.60071 -5.34640 9066 ft 286 kts 319°
2026-05-06 22:34 54.61621 -5.36761 8637 ft 283 kts 319°
2026-05-06 22:34 54.63176 -5.38884 8196 ft 283 kts 319°
2026-05-06 22:34 54.64710 -5.40981 7803 ft 280 kts 320°
2026-05-06 22:34 54.66239 -5.43074 7357 ft 280 kts 320°
2026-05-06 22:35 54.67764 -5.45163 6927 ft 280 kts 320°
2026-05-06 22:35 54.69284 -5.47245 6459 ft 277 kts 320°
2026-05-06 22:35 54.70789 -5.49307 5780 ft 275 kts 320°
2026-05-06 22:35 54.72283 -5.51355 5126 ft 273 kts 320°
2026-05-06 22:36 54.73263 -5.52700 4701 ft 271 kts 320°
2026-05-06 22:36 54.74728 -5.54711 4132 ft 265 kts 320°
2026-05-06 22:36 54.76120 -5.56623 3927 ft 245 kts 319°
2026-05-06 22:36 54.77376 -5.58429 3801 ft 224 kts 310°
2026-05-06 22:37 54.78207 -5.60600 3706 ft 213 kts 289°
2026-05-06 22:37 54.78533 -5.63061 3614 ft 209 kts 269°
2026-05-06 22:37 54.78349 -5.65532 3519 ft 207 kts 250°
2026-05-06 22:37 54.77400 -5.68327 3394 ft 204 kts 224°
2026-05-06 22:38 54.76669 -5.69388 3354 ft 203 kts 213°
2026-05-06 22:38 54.75504 -5.70782 3176 ft 203 kts 214°
2026-05-06 22:38 54.74350 -5.72180 2936 ft 202 kts 214°
2026-05-06 22:38 54.73196 -5.73573 2665 ft 202 kts 213°
2026-05-06 22:39 54.72056 -5.74948 2424 ft 194 kts 213°
2026-05-06 22:39 54.70984 -5.76240 2130 ft 181 kts 213°
2026-05-06 22:39 54.69986 -5.77441 1892 ft 168 kts 213°
2026-05-06 22:39 54.69070 -5.78544 1682 ft 151 kts 212°
2026-05-06 22:40 54.68265 -5.79513 1462 ft 134 kts 212°
2026-05-06 22:40 54.67522 -5.80404 1280 ft 127 kts 212°
2026-05-06 22:40 54.66802 -5.81268 1096 ft 125 kts 212°
2026-05-06 22:40 54.66090 -5.82122 928 ft 124 kts 212°
2026-05-06 22:41 54.64674 -5.83819 587 ft 123 kts 214°
2026-05-06 22:41 54.63963 -5.84669 407 ft 125 kts 214°
2026-05-06 22:41 54.63253 -5.85527 230 ft 125 kts 214°
2026-05-06 22:42 54.62548 -5.86374 63 ft 123 kts 214°
2026-05-06 22:42 54.61896 -5.87141 19 ft 93 kts 216°
2026-05-06 22:42 54.61565 -5.87545 15 ft 40 kts 214°
2026-05-06 22:42 54.61387 -5.87758 14 ft 14 kts 214°
2026-05-06 22:43 54.61336 -5.87799 14 ft 8 kts 181°
2026-05-06 22:43 54.61294 -5.87744 15 ft 8 kts 121°
2026-05-06 22:43 54.61262 -5.87667 16 ft 8 kts 125°
2026-05-06 22:43 54.61266 -5.87593 18 ft 6 kts 56°
2026-05-06 22:44 54.61292 -5.87555 18 ft 5 kts 34°
2026-05-06 22:44 54.61344 -5.87493 20 ft 14 kts 34°
2026-05-06 22:44 54.61416 -5.87370 21 ft 15 kts 53°
2026-05-06 22:44 54.61500 -5.87260 21 ft 16 kts 34°
2026-05-06 22:45 54.61552 -5.87199 21 ft 2 kts 34°
2026-05-06 22:45 54.61564 -5.87179 21 ft 3 kts 59°
2026-05-06 22:45 54.61559 -5.87148 21 ft 3 kts 121°
2026-05-06 22:45 54.61547 -5.87119 21 ft 0 kts 127°
2026-05-06 22:46 54.61546 -5.87116 21 ft 1 kts 126°
2026-05-06 22:46 54.61541 -5.87105 21 ft 1 kts 125°
2026-05-06 22:46 54.61538 -5.87097 21 ft 0 kts 124°